Tracking 31032 objects as of 13-Jul-2025
HD Live streaming from Space Station
objects crossing your sky now

CZ-6A DEB

Track CZ-6A DEB now!
10-day predictions


NORAD ID: 54298
Int'l Code: 2022-151AR
Perigee: 833.8 km
Apogee: 922.0 km
Inclination: 98.8 °
Period: 102.4 minutes
Semi major axis: 7248 km
RCS: Unknown
Launch date: November 11, 2022
Source: People's Republic of China (PRC)
Launch site: Taiyaun Space Center, China (TSC)

Note: This is SATELLITE DEBRIS
Your satellite tracking list
Your tracking list is empty




NASA's NSSDC Master Catalog

Two Line Element Set (TLE):
1 54298U 22151AR  25194.41741826  .00000251  00000-0  17420-3 0  9998
2 54298  98.8029 185.8317 0060854 231.9926 127.5739 14.06669573136409
Source of the keplerian elements: AFSPC